• In Netherlands
  • List of Countries
  • For 7 days
  • Water Temperature
  • Satellite Maps
  • Weather Map
  • Weather Widgets
  • user-avatar
    Login

    Hourly Weather Viedma

    Today, 22 January, Monday

    Time Temperature Precipitation Wind Pressure Humidity
    00:00 +29°C° 0.2 mm 6 mps 748 mmHg 43%
    01:00 +29°C° 0.2 mm 5 mps 748 mmHg 42%
    02:00 +29°C° 0.2 mm 4 mps 748 mmHg 41%
    03:00 +28°C° 0.1 mm 3 mps 748 mmHg 41%
    04:00 +28°C° 0.1 mm 3 mps 747 mmHg 41%
    05:00 +27°C° 0.1 mm 3 mps 747 mmHg 41%
    06:00 +29°C° 0 mm 3 mps 747 mmHg 36%
    07:00 +30°C° 0 mm 3 mps 747 mmHg 31%
    08:00 +33°C° 0 mm 4 mps 747 mmHg 25%
    09:00 +34°C° 0.1 mm 4 mps 747 mmHg 26%
    10:00 +36°C° 0.1 mm 5 mps 747 mmHg 26%
    11:00 +37°C° 0.1 mm 5 mps 747 mmHg 26%
    12:00 +36°C° 0.2 mm 6 mps 747 mmHg 30%
    13:00 +35°C° 0.2 mm 6 mps 747 mmHg 33%
    14:00 +34°C° 0.2 mm 6 mps 746 mmHg 37%
    15:00 +32°C° 0.2 mm 6 mps 746 mmHg 40%
    16:00 +30°C° 0.2 mm 6 mps 746 mmHg 43%
    17:00 +29°C° 0.2 mm 6 mps 746 mmHg 47%
    18:00 +28°C° 0.2 mm 6 mps 746 mmHg 52%
    19:00 +27°C° 0.2 mm 5 mps 746 mmHg 57%
    20:00 +25°C° 0.2 mm 5 mps 747 mmHg 63%
    21:00 +25°C° 0 mm 5 mps 746 mmHg 65%
    22:00 +23°C° 0 mm 4 mps 746 mmHg 67%
    23:00 +23°C° 0 mm 4 mps 746 mmHg 70%

    Tomorrow, 23 January, Tuesday

    Time Temperature Precipitation Wind Pressure Humidity
    00:00 +23°C° 0 mm 4 mps 746 mmHg 70%
    01:00 +24°C° 0 mm 3 mps 746 mmHg 70%
    02:00 +24°C° 0 mm 3 mps 746 mmHg 71%
    03:00 +22°C° 0 mm 4 mps 746 mmHg 72%
    04:00 +22°C° 0 mm 5 mps 746 mmHg 73%
    05:00 +22°C° 0 mm 6 mps 747 mmHg 75%
    06:00 +22°C° 0 mm 7 mps 748 mmHg 69%
    07:00 +23°C° 0 mm 8 mps 748 mmHg 64%
    08:00 +23°C° 0 mm 9 mps 749 mmHg 58%
    09:00 +23°C° 0 mm 10 mps 750 mmHg 52%
    10:00 +24°C° 0 mm 10 mps 750 mmHg 46%
    11:00 +24°C° 0 mm 11 mps 751 mmHg 39%
    12:00 +24°C° 0 mm 11 mps 751 mmHg 38%
    13:00 +24°C° 0 mm 11 mps 752 mmHg 38%
    14:00 +24°C° 0 mm 11 mps 753 mmHg 37%
    15:00 +24°C° 0 mm 10 mps 753 mmHg 36%
    16:00 +23°C° 0 mm 10 mps 754 mmHg 36%
    17:00 +23°C° 0 mm 10 mps 754 mmHg 36%
    18:00 +21°C° 0 mm 9 mps 755 mmHg 42%
    19:00 +19°C° 0 mm 9 mps 756 mmHg 48%
    20:00 +18°C° 0 mm 9 mps 757 mmHg 55%
    21:00 +18°C° 0 mm 9 mps 758 mmHg 57%
    22:00 +17°C° 0 mm 8 mps 759 mmHg 59%
    23:00 +17°C° 0 mm 8 mps 759 mmHg 61%

    Day after tomorrow, 24 January, Wednesday

    Time Temperature Precipitation Wind Pressure Humidity
    00:00 +16°C° 0 mm 8 mps 760 mmHg 62%
    01:00 +16°C° 0 mm 7 mps 760 mmHg 62%
    02:00 +16°C° 0 mm 7 mps 760 mmHg 63%
    03:00 +15°C° 0 mm 6 mps 761 mmHg 62%
    04:00 +15°C° 0 mm 6 mps 761 mmHg 61%
    05:00 +15°C° 0 mm 5 mps 762 mmHg 61%
    06:00 +15°C° 0 mm 5 mps 762 mmHg 55%
    07:00 +16°C° 0 mm 5 mps 763 mmHg 50%
    08:00 +17°C° 0 mm 5 mps 763 mmHg 44%
    09:00 +19°C° 0 mm 5 mps 763 mmHg 40%
    10:00 +20°C° 0 mm 5 mps 764 mmHg 37%
    11:00 +21°C° 0 mm 5 mps 764 mmHg 33%
    12:00 +21°C° 0 mm 5 mps 764 mmHg 33%
    13:00 +22°C° 0 mm 5 mps 763 mmHg 32%
    14:00 +22°C° 0 mm 5 mps 763 mmHg 32%
    15:00 +22°C° 0 mm 6 mps 763 mmHg 34%
    16:00 +21°C° 0 mm 6 mps 762 mmHg 36%
    17:00 +21°C° 0 mm 7 mps 762 mmHg 38%
    18:00 +20°C° 0 mm 7 mps 762 mmHg 42%
    19:00 +19°C° 0 mm 6 mps 762 mmHg 47%
    20:00 +17°C° 0 mm 6 mps 763 mmHg 51%
    21:00 +16°C° 0 mm 6 mps 763 mmHg 53%
    22:00 +16°C° 0 mm 6 mps 763 mmHg 54%
    23:00 +16°C° 0 mm 6 mps 763 mmHg 56%

    25 January, Thursday

    Time Temperature Precipitation Wind Pressure Humidity
    00:00 +16°C° 0 mm 6 mps 763 mmHg 58%
    01:00 +16°C° 0 mm 6 mps 762 mmHg 59%
    02:00 +15°C° 0 mm 5 mps 762 mmHg 61%
    03:00 +15°C° 0 mm 5 mps 762 mmHg 63%
    04:00 +15°C° 0 mm 5 mps 761 mmHg 64%
    05:00 +15°C° 0 mm 5 mps 761 mmHg 66%
    06:00 +16°C° 0 mm 6 mps 761 mmHg 63%
    07:00 +17°C° 0 mm 6 mps 761 mmHg 59%
    08:00 +18°C° 0 mm 7 mps 762 mmHg 56%
    09:00 +21°C° 0 mm 7 mps 761 mmHg 50%
    10:00 +23°C° 0 mm 7 mps 761 mmHg 43%
    11:00 +26°C° 0 mm 7 mps 761 mmHg 37%
    12:00 +26°C° 0 mm 7 mps 760 mmHg 35%
    13:00 +27°C° 0 mm 7 mps 760 mmHg 32%
    14:00 +28°C° 0 mm 7 mps 759 mmHg 30%
    15:00 +28°C° 0 mm 8 mps 758 mmHg 31%
    16:00 +27°C° 0 mm 8 mps 758 mmHg 33%
    17:00 +27°C° 0 mm 8 mps 758 mmHg 34%
    18:00 +24°C° 0.1 mm 8 mps 757 mmHg 41%
    19:00 +23°C° 0.1 mm 8 mps 757 mmHg 49%
    20:00 +21°C° 0.1 mm 8 mps 757 mmHg 56%
    21:00 +21°C° 0 mm 8 mps 757 mmHg 58%
    22:00 +21°C° 0 mm 9 mps 756 mmHg 61%
    23:00 +19°C° 0 mm 10 mps 756 mmHg 63%

    26 January, Friday

    Time Temperature Precipitation Wind Pressure Humidity
    00:00 +21°C° 0 mm 9 mps 755 mmHg 63%
    01:00 +21°C° 0 mm 9 mps 755 mmHg 64%
    02:00 +21°C° 0 mm 9 mps 755 mmHg 65%
    03:00 +21°C° 0 mm 8 mps 754 mmHg 61%
    04:00 +21°C° 0 mm 7 mps 754 mmHg 58%
    05:00 +21°C° 0 mm 6 mps 754 mmHg 55%
    06:00 +22°C° 0 mm 7 mps 754 mmHg 50%
    07:00 +23°C° 0 mm 7 mps 754 mmHg 44%
    08:00 +24°C° 0 mm 8 mps 754 mmHg 38%
    09:00 +27°C° 0.1 mm 8 mps 753 mmHg 37%
    10:00 +28°C° 0.1 mm 8 mps 753 mmHg 36%
    11:00 +31°C° 0.1 mm 8 mps 753 mmHg 35%
    12:00 +32°C° 0 mm 8 mps 752 mmHg 33%
    13:00 +33°C° 0 mm 8 mps 751 mmHg 31%
    14:00 +34°C° 0 mm 8 mps 750 mmHg 29%
    15:00 +33°C° 0.2 mm 7 mps 750 mmHg 31%
    16:00 +32°C° 0.2 mm 7 mps 749 mmHg 34%
    17:00 +30°C° 0.2 mm 7 mps 748 mmHg 36%
    18:00 +29°C° 0 mm 8 mps 748 mmHg 43%
    19:00 +28°C° 0 mm 8 mps 748 mmHg 49%
    20:00 +26°C° 0 mm 9 mps 748 mmHg 55%
    21:00 +26°C° 0 mm 9 mps 748 mmHg 53%
    22:00 +27°C° 0 mm 8 mps 748 mmHg 51%
    23:00 +27°C° 0 mm 8 mps 748 mmHg 48%

    27 January, Saturday

    Time Temperature Precipitation Wind Pressure Humidity
    00:00 +27°C° 0 mm 8 mps 747 mmHg 46%
    01:00 +27°C° 0 mm 9 mps 747 mmHg 45%
    02:00 +27°C° 0 mm 10 mps 747 mmHg 43%
    03:00 +26°C° 0 mm 9 mps 747 mmHg 44%
    04:00 +24°C° 0 mm 8 mps 747 mmHg 44%
    05:00 +24°C° 0 mm 7 mps 747 mmHg 45%
    06:00 +24°C° 0 mm 8 mps 747 mmHg 49%
    07:00 +24°C° 0 mm 8 mps 747 mmHg 54%
    08:00 +24°C° 0 mm 9 mps 748 mmHg 58%
    09:00 +26°C° 0 mm 9 mps 748 mmHg 52%
    10:00 +26°C° 0 mm 9 mps 749 mmHg 46%
    11:00 +27°C° 0 mm 9 mps 749 mmHg 41%
    12:00 +27°C° 0 mm 8 mps 749 mmHg 38%
    13:00 +28°C° 0 mm 8 mps 749 mmHg 35%
    14:00 +28°C° 0 mm 7 mps 750 mmHg 32%
    15:00 +28°C° 0 mm 5 mps 750 mmHg 31%
    16:00 +28°C° 0 mm 4 mps 749 mmHg 30%
    17:00 +28°C° 0 mm 3 mps 749 mmHg 29%
    18:00 +27°C° 0 mm 3 mps 749 mmHg 31%
    19:00 +26°C° 0 mm 4 mps 749 mmHg 32%
    20:00 +26°C° 0 mm 4 mps 749 mmHg 34%
    21:00 +25°C° 0 mm 4 mps 750 mmHg 37%
    22:00 +23°C° 0 mm 4 mps 750 mmHg 39%
    23:00 +22°C° 0 mm 4 mps 750 mmHg 42%
    Show more